Location: Claremont
(33.9858°S, 18.4575°E)
Time: 03:30:32
(UTC+00:00)

IRS-1C Rocket - Pass Details

Date: 03 March 2021
Orbit: 800 x 806 km, 99.0° (Epoch: 10 April)

Event Time Altitude Azimuth Distance (km) Brightness Sun altitude
Rises 17:42:06 0° 159° (SSE) 3,341 7.2 -5.4°
Reaches altitude 10° 17:44:34 10° 153° (SSE) 2,404 6.4 -5.9°
Maximum altitude 17:49:38 45° 80° (E) 1,095 4.4 -6.9°
Drops below altitude 10° 17:54:39 10° 8° (N) 2,377 6.3 -7.9°
Sets 17:57:03 0° 1° (N) 3,299 7.1 -8.4°
